Tracking 29892 objects as of 21-Nov-2024
HD Live streaming from Space Station
objects crossing your sky now

STARLINK-31602

Track STARLINK-31602 now!
10-day predictions
STARLINK-31602 is classified as:


NORAD ID: 59202
Int'l Code: 2024-046B
Perigee: 481.3 km
Apogee: 483.4 km
Inclination: 53.2 °
Period: 94.1 minutes
Semi major axis: 6853 km
RCS: Unknown
Launch date: March 11, 2024
Source: United States (US)
Launch site: AIR FORCE WESTERN TEST RANGE (AFWTR)
Your satellite tracking list
Your tracking list is empty




NASA's NSSDC Master Catalog

Two Line Element Set (TLE):
1 59202U 24046B   24325.65057279  .00001405  00000-0  59531-4 0  9998
2 59202  53.1599 197.0973 0001529  55.9925 304.1221 15.30208892 40476
Source of the keplerian elements: AFSPC